GW2935 Weather Reports


time (UTC)temp
C
wind
direction
speed
KPH
gust
KPH
rain 1hr
cm
rain 24hr
cm
rain mn
cm
humidity
%
barometer
mb
20260505171546 26 12 1.6 8.0 0.00 0.00 0.00 82 1009.6
20260505170043 26 298 1.6 9.7 0.00 0.00 0.00 84 1009.8
20260505164549 26 223 1.6 11.3 0.00 0.00 0.00 83 1009.8
20260505163045 26 37 1.6 8.0 0.00 0.00 0.00 82 1009.7
20260505161546 26 98 3.2 9.7 0.00 0.00 0.00 82 1009.6
20260505153052 25 0 0.0 6.4 0.00 0.00 0.00 84 1009.4
20260505151552 25 248 1.6 8.0 0.00 0.00 0.00 84 1009.4
20260505124554 23 0 1.6 6.4 0.00 0.00 0.00 89 1009.0
20260505123048 22 140 1.6 4.8 0.00 0.00 0.00 90 1008.9
20260505121548 22 0 0.0 8.0 0.00 0.00 0.00 89 1008.8
20260505120054 22 77 1.6 9.7 0.00 0.00 0.00 89 1008.5
20260505114547 22 300 1.6 6.4 0.00 0.00 0.00 89 1008.8
20260505113055 22 217 1.6 6.4 0.00 0.00 0.00 90 1008.9
20260505111548 22 264 1.6 6.4 0.00 0.00 0.00 90 1008.6
20260505101551 22 0 0.0 3.2 0.00 0.00 0.00 89 1008.7
20260505100046 22 48 0.0 1.6 0.00 0.00 0.00 89 1008.9
20260505094544 22 68 0.0 4.8 0.00 0.00 0.00 89 1008.7
20260505093055 22 203 0.0 3.2 0.00 0.00 0.00 89 1008.7
20260505091549 22 268 0.0 3.2 0.00 0.00 0.00 89 1008.9
20260505090053 22 123 0.0 6.4 0.00 0.00 0.00 89 1009.0
20260505084555 21 0 0.0 6.4 0.00 0.00 0.00 89 1008.9
20260505083058 21 203 0.0 6.4 0.00 0.00 0.00 89 1008.9
20260505081558 21 173 0.0 4.8 0.00 0.00 0.00 88 1009.3
20260505080053 21 0 0.0 9.7 0.00 0.00 0.00 88 1009.4
20260505074552 21 0 0.0 4.8 0.00 0.00 0.00 87 1009.4
20260505073047 21 204 0.0 8.0 0.00 0.00 0.00 87 1009.5
20260505071551 21 264 0.0 4.8 0.00 0.00 0.00 87 1009.6
20260505070051 21 233 0.0 8.0 0.00 0.00 0.00 87 1009.7
20260505064550 21 110 0.0 9.7 0.00 0.00 0.00 86 1009.8
20260505063048 21 71 1.6 8.0 0.00 0.00 0.00 86 1010.2
20260505061543 21 77 1.6 6.4 0.00 0.00 0.00 85 1010.5
20260505060045 21 154 1.6 6.4 0.00 0.00 0.00 85 1010.4
20260505054556 21 275 0.0 8.0 0.00 0.00 0.00 84 1010.3
20260505053047 21 233 0.0 6.4 0.00 0.00 0.00 84 1010.8
20260505051546 21 221 1.6 4.8 0.00 0.00 0.00 83 1010.9
20260505041547 22 86 3.2 8.0 0.00 0.00 0.00 81 1010.7
20260505040052 22 0 1.6 8.0 0.00 0.00 0.00 80 1011.3
20260505034551 22 40 3.2 9.7 0.00 0.00 0.00 79 1011.4
20260505033045 22 33 1.6 14.5 0.00 0.00 0.00 78 1011.4
20260505031557 22 171 0.0 12.9 0.00 0.00 0.00 78 1011.2
20260505030054 23 249 1.6 9.7 0.00 0.00 0.00 78 1011.2
20260505024551 22 72 1.6 6.4 0.00 0.00 0.00 78 1011.3
20260505023047 22 231 0.0 9.7 0.00 0.00 0.00 78 1011.2
20260505021543 23 0 1.6 9.7 0.00 0.00 0.00 77 1011.0
20260505020050 23 302 3.2 11.3 0.00 0.00 0.00 76 1011.0
20260505014603 23 43 1.6 11.3 0.00 0.00 0.00 76 1010.8
20260505013049 23 58 1.6 12.9 0.00 0.00 0.00 75 1010.6
20260505011552 23 77 3.2 11.3 0.00 0.00 0.00 74 1010.6
20260505010043 23 224 3.2 11.3 0.00 0.00 0.00 73 1010.4
20260505004551 24 327 1.6 4.8 0.00 0.00 0.00 72 1010.4
20260505003046 24 59 3.2 9.7 0.00 0.00 0.00 71 1010.4
20260505001550 25 110 1.6 11.3 0.00 0.00 0.00 70 1010.3
20260505000058 25 106 1.6 6.4 0.00 0.00 0.00 69 1010.5
20260504234552 25 252 1.6 11.3 0.00 0.00 0.00 68 1010.6
20260504233046 25 305 1.6 12.9 0.00 0.00 0.00 67 1010.7
20260504231549 26 57 1.6 12.9 0.00 0.00 0.00 66 1010.7
20260504230046 26 118 1.6 14.5 0.00 0.00 0.00 64 1010.8
20260504224546 26 72 1.6 9.7 0.00 0.00 0.00 65 1011.0
20260504223050 26 131 1.6 9.7 0.00 0.00 0.00 64 1011.0
20260504221547 26 150 3.2 9.7 0.00 0.00 0.00 63 1011.4
20260504220048 26 0 1.6 11.3 0.00 0.00 0.00 63 1011.5
20260504214555 27 238 1.6 11.3 0.00 0.00 0.00 61 1011.5
20260504213049 27 255 3.2 9.7 0.00 0.00 0.00 60 1011.8
20260504211546 27 232 1.6 12.9 0.00 0.00 0.00 60 1011.7
20260504204558 28 313 1.6 11.3 0.00 0.00 0.00 57 1012.3
20260504203111 28 331 3.2 11.3 0.00 0.00 0.00 57 1012.5
20260504201547 27 328 3.2 11.3 0.00 0.00 0.00 57 1012.8
20260504200054 27 246 1.6 11.3 0.00 0.00 0.00 57 1013.1
20260504194547 27 75 1.6 9.7 0.00 0.00 0.00 57 1013.2
20260504193048 28 342 3.2 9.7 0.00 0.00 0.00 55 1013.4
20260504191553 28 158 3.2 9.7 0.00 0.00 0.00 55 1013.7
20260504190058 28 129 1.6 16.1 0.00 0.00 0.00 56 1013.9
20260504184551 28 258 1.6 14.5 0.00 0.00 0.00 55 1014.0
20260504183047 27 44 3.2 9.7 0.00 0.00 0.00 57 1014.1
20260504181543 27 86 3.2 12.9 0.00 0.00 0.00 58 1014.2
20260504180051 27 205 1.6 12.9 0.00 0.00 0.00 58 1014.6
20260504174546 27 333 3.2 11.3 0.00 0.00 0.00 55 1014.7
20260504173055 26 48 3.2 11.3 0.00 0.00 0.00 57 1014.8